This demonstration page uses our WeatherBlox Daily Observations layout. Learn more.

Left ArrowRight Arrow

Hourly Observations for March 19, 2018

Temp ( °F °C ) Dew Point ( °F °C ) Humidity (%) Winds ( mph kmh ) Pressure ( in mb ) Visibility ( mi km ) Precip ( " mm )
12:59 am 00:59 Clear 41 5 30 -1.1 65 65 S 8 13 29.96 1015 10 16 0.00 0.00
1:59 am 01:59 Partly Cloudy 40 4.4 31 -0.6 70 70 S 9 15 29.96 1015 10 16 0.00 0.00
2:59 am 02:59 Mostly Cloudy 41 5 32 0 70 70 S 7 11 29.96 1014 10 16 0.00 0.00
3:59 am 03:59 Mostly Cloudy 41 5 32 0 70 70 S 7 11 29.93 1014 10 16 0.00 0.00
4:59 am 04:59 Mostly Cloudy 41 5 33 0.6 73 73 S 7 11 29.92 1013 10 16 0.00 0.00
5:59 am 05:59 Mostly Clear 40 4.4 33 0.6 77 77 S 6 9 29.92 1013 10 16 0.00 0.00
6:59 am 06:59 Mostly Cloudy 41 5 33 0.6 73 73 SW 5 7 29.93 1014 10 16 0.00 0.00
7:59 am 07:59 Cloudy 43 6.1 36 2.2 76 76 WSW 5 7 29.95 1014 10 16 0.00 0.00
8:59 am 08:59 Cloudy 45 7.2 36 2.2 71 71 SW 5 7 29.94 1014 10 16 0.00 0.00
9:59 am 09:59 Cloudy 47 8.3 36 2.2 66 66 Calm 29.93 1014 10 16 0.00 0.00
10:59 am 10:59 Cloudy 49 9.4 37 2.8 64 64 SSW 3 6 29.93 1014 10 16 0.00 0.00
11:59 am 11:59 Cloudy 53 11.7 37 2.8 55 55 Calm 29.94 1014 10 16 0.00 0.00
12:59 pm 12:59 Cloudy 56 13.3 35 1.7 46 46 VRB 3 6 29.92 1013 10 16 0.00 0.00
1:59 pm 13:59 Cloudy 54 12.2 38 3.3 55 55 ENE 7 11 29.89 1012 10 16 0.00 0.00
2:59 pm 14:59 Cloudy 54 12.2 38 3.3 55 55 ENE 8 13 29.87 1011 10 16 0.00 0.00
3:59 pm 15:59 Mostly Cloudy 56 13.3 38 3.3 51 51 E 8 13 29.85 1011 10 16 0.00 0.00
4:59 pm 16:59 Cloudy 52 11.1 41 5 66 66 E 8 13 29.84 1011 10 16 0.00 0.00
5:59 pm 17:59 Cloudy 53 11.7 42 5.6 66 66 ENE 7 11 29.83 1010 10 16 0.00 0.00
6:59 pm 18:59 Cloudy 53 11.7 40 4.4 61 61 ESE 8 13 29.84 1011 10 16 0.00 0.00
7:59 pm 19:59 Cloudy with Light Rain 49 9.4 42 5.6 77 77 E 10 17 29.86 1011 6 10 0.00 0.03
8:59 pm 20:59 Cloudy 48 8.9 41 5 77 77 ESE 12 19 29.86 1011 10 16 0.00 0.03
9:59 pm 21:59 Cloudy 47 8.3 41 5 80 80 E 10 17 29.86 1011 10 16 0.00 0.00
10:53 pm 22:53 Cloudy with Light Rain 46 8 43 6 87 87 E 12 19 29.83 1010 5 8 0.02 0.51
10:59 pm 22:59 Cloudy with Light Rain 47 8.3 43 6.1 86 86 E 14 22 29.84 1011 8 13 0.02 0.51
11:13 pm 23:13 Cloudy 46 7.8 43 6.1 89 89 E 14 22 29.83 1010 7 11 0.00 0.03
11:59 pm 23:59 Cloudy 46 7.8 43 6.1 89 89 E 15 24 29.82 1010 7 11 0.00 0.03

Powered by AerisWeather